Weather Roundup
Issued by NWS Chicago, IL

Home | Current Version | Previous Version | Graphics & Text | Print | Product List | Glossary On
Versions: 1 2 3 4 5 6 7 8 9 10 11 12 13 14 15 16 17 18 19 20 21 22 23 24 25 26 27 28 29 30 31 32 33 34 35 36 37 38 39 40 41 42 43 44 45 46 47 48 49 50
000
NZUS59 KLOT 231605
HRRLOT

CHICAGO AREA WEATHER ROUNDUP
NATIONAL WEATHER SERVICE CHICAGO/ROMEOVILLE IL
1100 AM CDT MON OCT 23 2017

NOTE: "FAIR" INDICATES FEW OR NO CLOUDS BELOW 12,000 FEET WITH NO
SIGNIFICANT WEATHER AND/OR OBSTRUCTIONS TO VISIBILITY.

* THESE STATIONS ARE NOT UNDER NWS QUALITY CONTROL. THEY ALSO MAY NOT
  REPORT WEATHER SUCH AS PRECIPITATION OR FOG.

ILZ005-006-012>014-019>023-231700-
NORTHEAST ILLINOIS

CITY           SKY/WX    TMP DP  RH WIND       PRES   REMARKS
OHARE          LGT RAIN  53  50  89 N7        29.81F
MIDWAY         LGT RAIN  54  52  93 N10       29.80F
AURORA         CLOUDY    52  50  93 NW7       29.83F
LANSING*       RAIN      54  54 100 N7        29.78F
JOLIET*        LGT RAIN  53  52  97 N3        29.82S
WAUKEGAN       CLOUDY    51  51 100 N3        29.80F
DUPAGE AIRPORT CLOUDY    51  50  96 N6        29.81F
WHEELING       LGT RAIN  53  52  96 NW6       29.82F
KANKAKEE*      RAIN      53  52  97 N7        29.81R
NORTHERLY ISL    N/A     53  51  93 N14         N/A
$$

WIZ051-052-058>065-066-070>072-231700-
SOUTHEAST WISCONSIN

CITY           SKY/WX    TMP DP  RH WIND       PRES   REMARKS
MILWAUKEE      CLOUDY    53  49  86 N6        29.83F
KENOSHA*       CLOUDY    52  49  89 N5        29.82F
RACINE*        CLOUDY    52  51  97 N5        29.84F
WAUKESHA       SUNNY     48  45  87 CALM      29.85F
WEST BEND      CLOUDY    48  45  87 CALM      29.83F
$$

INZ001>003-010>013-019-020-231700-
NORTHWEST INDIANA

CITY           SKY/WX    TMP DP  RH WIND       PRES   REMARKS
GARY*          RAIN      57  55  94 N12G23    29.79F
MICHIGAN CITY* NOT AVBL
RENSSELAER*    NOT AVBL
VALPARAISO     RAIN      56  55  97 N12G22    29.75F FOG
$$

LMZ740>746-231700-
SOUTHERN LAKE MICHIGAN

STATION/POSITION TIME  SKY/WX   TEMP WIND        PRES    VSBY
                                AIR  DIR/SP/G
                 (UTC)          (F)  (DEG/KT/KT) (MB)    (MI)
HARRISON CRIB    1540            54  360/ 16/ 19   N/A
BURNHAM HARBOR   1600            53  330/  9/ 14   N/A
CALUMET HARBOR   1530            54  350/ 12/ 16 1008.3F
BURNS HARBOR     1540            56   30/ 21/ 23 1008.1F
MICHIGAN CITY    1540            55   10/ 24/ 26   N/A
$$

ABBREVIATIONS USED IN REMARKS
   TC - TEMPERATURE IN CELSIUS
  WCI - WIND CHILL INDEX
   HX - HEAT INDEX
  VSB - VISIBILITY
$$




USA.gov is the U.S. government's official web portal to all federal, state and local government web resources and services.